Temp
-8 -7 -7 -7 -7 -7 -7 -7 -7 -6 -6 -6 -6 -7 -7 -7 -7 -7 -8 -8 -8 -8 -8 -7 -8 -9 -9 -9 -8 -8 -8 -7 -8 -8 -7 -7 -7 -6 -8 -7 -8 -8 -7 -7 -7
-8 -8 -8 -7 -7 -7 -7 -7 -7 -7 -6 -7 -6 -7 -7 -7 -7 -7 -8 -8 -8 -8 -8 -8 -8 -8 -9 -9 -9 -8 -8 -8 -9 -9 -9 -7 -8 -8 -8 -9 -9 -7 -7 -8 -7
-8 -8 -8 -7 -7 -7 -7 -7 -7 -7 -6 -7 -6 -7 -7 -7 -7 -7 -8 -8 -8 -8 -8 -8 -8 -8 -8 -9 -9 -9 -8 -9 -9 -9 -9 -9 -9 -8 -8 -8 -9 -7 -8 -8 -7
-8 -8 -8 -7 -7 -7 -7 -7 -7 -7 -7 -6 -6 -6 -7 -7 -6 -7 -7 -8 -8 -8 -8 -8 -8 -8 -8 -8 -9 -9 -8 -9 -10 -9 -9 -8 -8 -9 -7 -9 -7 -8 -10 -9 -8
-8 -8 -8 -8 -7 -7 -7 -7 -7 -6 -6 -6 -6 -6 -6 -6 -6 -7 -7 -7 -8 -8 -8 -8 -8 -8 -8 -8 -9 -9 -8 -9 -10 -10 -8 -8 -8 -9 -9 -8 -8 -8 -8 -9 -8
-8 -8 -8 -8 -7 -7 -7 -7 -7 -6 -6 -6 -6 -6 -7 -7 -6 -7 -7 -7 -7 -8 -8 -8 -8 -8 -9 -9 -10 -10 -9 -8 -9 -10 -10 -8 -8 -9 -9 -8 -8 -8 -9 -8 -7
-8 -8 -8 -8 -8 -7 -7 -7 -7 -7 -6 -6 -6 -6 -6 -7 -7 -7 -7 -7 -7 -7 -8 -8 -8 -8 -9 -8 -9 -9 -9 -8 -8 -9 -9 -10 -8 -9 -9 -9 -8 -9 -9 -8 -7
-9 -8 -8 -8 -8 -8 -7 -7 -7 -7 -7 -6 -6 -6 -7 -6 -7 -7 -7 -7 -7 -7 -8 -8 -8 -8 -8 -8 -9 -8 -8 -8 -9 -8 -8 -7 -7 -8 -9 -9 -9 -10 -9 -9 -7
-9 -9 -9 -8 -8 -8 -8 -7 -7 -7 -7 -7 -7 -6 -7 -7 -7 -7 -7 -7 -7 -7 -8 -8 -8 -8 -8 -8 -8 -8 -8 -9 -9 -9 -9 -8 -7 -9 -9 -9 -9 -9 -9 -9 -9
-10 -9 -9 -9 -9 -8 -8 -8 -7 -7 -7 -7 -7 -7 -6 -7 -7 -7 -7 -7 -7 -7 -8 -8 -8 -8 -8 -8 -8 -9 -9 -9 -9 -9 -9 -9 -8 -9 -9 -9 -9 -9 -9 -10 -9
-10 -10 -9 -9 -9 -9 -9 -8 -8 -8 -7 -7 -7 -7 -7 -7 -7 -7 -7 -7 -7 -7 -8 -8 -8 -8 -8 -8 -8 -9 -9 -8 -8 -8 -9 -9 -9 -9 -9 -10 -9 -9 -9 -9 -9
-10 -10 -10 -9 -9 -9 -9 -9 -8 -8 -8 -8 -7 -7 -7 -7 -7 -7 -7 -7 -7 -8 -8 -8 -7 -8 -8 -8 -10 -10 -9 -9 -9 -8 -9 -9 -9 -9 -9 -9 -10 -10 -10 -9 -10
-10 -10 -10 -10 -10 -9 -9 -9 -9 -8 -8 -8 -8 -7 -7 -7 -7 -7 -7 -7 -7 -7 -8 -8 -8 -8 -9 -8 -9 -8 -8 -8 -9 -9 -9 -9 -8 -8 -9 -9 -9 -9 -9 -9 -9
-11 -10 -10 -10 -10 -10 -10 -10 -9 -9 -8 -8 -8 -8 -8 -8 -7 -7 -7 -8 -7 -7 -8 -7 -8 -10 -8 -8 -8 -8 -8 -8 -8 -10 -9 -9 -9 -9 -9 -9 -10 -8 -7 -9 -9
-11 -11 -11 -11 -10 -10 -10 -10 -10 -10 -9 -9 -8 -8 -8 -8 -8 -8 -8 -8 -8 -8 -8 -8 -8 -9 -8 -8 -8 -8 -9 -10 -9 -9 -10 -9 -9 -9 -9 -9 -9 -8 -7 -7 -8
-11 -11 -11 -11 -11 -10 -10 -10 -10 -10 -9 -10 -9 -9 -9 -8 -8 -8 -8 -8 -8 -8 -8 -8 -9 -10 -8 -8 -8 -8 -8 -9 -9 -9 -10 -8 -9 -9 -9 -10 -10 -8 -7 -8 -8
-11 -11 -11 -11 -11 -11 -11 -10 -10 -10 -10 -11 -10 -9 -9 -9 -9 -9 -8 -8 -8 -8 -8 -8 -8 -9 -8 -8 -8 -8 -9 -8 -9 -9 -8 -9 -10 -9 -9 -9 -9 -9 -9 -9 -9
-11 -11 -11 -11 -11 -11 -11 -11 -10 -10 -10 -11 -10 -9 -9 -10 -9 -9 -9 -8 -8 -8 -9 -9 -9 -8 -8 -8 -8 -8 -9 -8 -10 -9 -9 -9 -9 -9 -9 -9 -9 -9 -9 -9 -9
-11 -11 -11 -11 -11 -11 -11 -10 -10 -11 -11 -11 -12 -10 -10 -10 -10 -10 -9 -9 -9 -9 -9 -9 -9 -10 -9 -8 -9 -10 -8 -8 -10 -9 -10 -9 -10 -10 -10 -10 -10 -9 -10 -9 -10
-12 -11 -12 -11 -12 -11 -11 -10 -11 -11 -11 -11 -11 -10 -10 -11 -11 -10 -10 -9 -9 -9 -9 -9 -10 -11 -11 -11 -9 -9 -11 -10 -10 -10 -9 -9 -10 -10 -10 -10 -10 -10 -10 -10 -10
-12 -12 -11 -12 -12 -11 -11 -11 -11 -11 -12 -11 -11 -11 -11 -11 -12 -12 -11 -10 -10 -10 -9 -10 -11 -10 -11 -11 -9 -9 -9 -11 -11 -11 -10 -9 -10 -10 -10 -10 -10 -10 -10 -10 -10
-12 -12 -11 -12 -12 -11 -11 -11 -12 -11 -11 -12 -11 -11 -11 -11 -12 -13 -12 -12 -11 -10 -10 -9 -10 -10 -11 -11 -11 -11 -11 -10 -10 -10 -11 -10 -10 -10 -10 -10 -10 -11 -9 -9 -10
-12 -12 -12 -12 -11 -11 -11 -11 -11 -12 -12 -12 -11 -11 -12 -12 -12 -11 -12 -12 -12 -12 -10 -12 -11 -11 -11 -11 -12 -10 -10 -12 -11 -11 -11 -11 -10 -11 -11 -11 -11 -11 -11 -10 -11
-12 -12 -12 -11 -11 -11 -11 -11 -11 -11 -11 -12 -12 -12 -12 -12 -12 -12 -11 -11 -13 -13 -11 -12 -12 -11 -10 -10 -11 -10 -10 -12 -12 -12 -11 -11 -11 -11 -11 -10 -11 -11 -11 -10 -11
-13 -13 -12 -12 -12 -12 -12 -12 -11 -12 -13 -13 -13 -12 -12 -12 -12 -12 -12 -12 -13 -13 -11 -12 -10 -10 -10 -10 -11 -11 -10 -10 -11 -11 -12 -11 -11 -10 -11 -11 -11 -10 -11 -11 -12
-14 -13 -13 -14 -14 -13 -12 -12 -13 -13 -15 -14 -14 -13 -13 -12 -12 -12 -12 -12 -12 -13 -12 -12 -10 -11 -10 -10 -11 -11 -11 -11 -11 -11 -12 -12 -11 -10 -10 -11 -10 -11 -11 -11 -10
-15 -15 -15 -15 -15 -15 -14 -14 -15 -14 -15 -15 -15 -15 -15 -12 -13 -12 -12 -14 -13 -12 -12 -12 -11 -11 -11 -11 -11 -11 -11 -12 -11 -12 -11 -11 -11 -11 -11 -11 -10 -10 -11 -11 -11
Height
5879 5880 5881 5882 5883 5884 5885 5885 5885 5886 5886 5886 5886 5887 5888 5889 5891 5893 5895 5897 5897 5899 5899 5900 5901 5905 5908 5912 5916 5919 5923 5927 5929 5930 5922 5920 5928 5915 5915 5921 5920 5918 5915 5916 5914
5876 5878 5879 5879 5881 5881 5882 5883 5883 5884 5885 5885 5885 5886 5887 5888 5889 5891 5894 5894 5896 5897 5898 5899 5901 5902 5906 5909 5913 5917 5922 5923 5927 5929 5920 5925 5918 5917 5925 5922 5917 5918 5917 5914 5913
5873 5874 5875 5876 5877 5878 5879 5880 5881 5881 5883 5883 5884 5885 5885 5886 5888 5890 5891 5893 5894 5896 5897 5899 5900 5901 5903 5906 5911 5915 5920 5920 5922 5924 5923 5921 5926 5925 5908 5913 5914 5905 5915 5914 5911
5870 5871 5872 5873 5874 5875 5876 5876 5877 5878 5879 5881 5882 5883 5884 5885 5887 5889 5890 5891 5893 5894 5896 5897 5899 5901 5902 5904 5908 5912 5916 5918 5922 5918 5918 5923 5925 5922 5913 5911 5913 5890 5902 5911 5910
5866 5867 5868 5869 5870 5871 5872 5873 5874 5875 5876 5877 5879 5881 5882 5884 5885 5886 5888 5890 5891 5893 5895 5896 5898 5900 5902 5904 5906 5909 5913 5915 5919 5916 5915 5917 5920 5925 5917 5915 5910 5906 5907 5911 5909
5862 5862 5863 5864 5866 5867 5868 5870 5870 5872 5873 5874 5875 5877 5879 5881 5884 5884 5887 5888 5890 5891 5893 5895 5896 5898 5900 5902 5905 5908 5910 5911 5912 5913 5912 5912 5914 5918 5912 5903 5899 5908 5904 5907 5908
5858 5858 5859 5860 5861 5863 5864 5866 5867 5868 5869 5870 5872 5873 5876 5877 5881 5882 5884 5886 5888 5890 5891 5892 5894 5896 5898 5899 5902 5905 5907 5908 5909 5909 5909 5911 5911 5914 5914 5910 5902 5916 5912 5907 5905
5854 5855 5855 5856 5857 5858 5859 5861 5863 5864 5866 5867 5868 5870 5872 5874 5876 5878 5881 5883 5885 5887 5889 5890 5892 5893 5895 5898 5900 5903 5905 5906 5907 5907 5907 5908 5910 5912 5917 5916 5914 5915 5910 5907 5903
5850 5851 5851 5852 5853 5854 5854 5856 5858 5860 5861 5863 5865 5867 5868 5871 5873 5874 5877 5880 5882 5884 5886 5888 5889 5892 5894 5896 5898 5901 5904 5905 5907 5909 5908 5908 5908 5911 5917 5915 5915 5915 5911 5905 5904
5845 5846 5847 5847 5848 5849 5850 5851 5852 5855 5857 5859 5861 5865 5866 5867 5869 5871 5873 5876 5879 5880 5883 5885 5886 5889 5891 5894 5897 5902 5905 5907 5911 5909 5907 5907 5909 5908 5915 5913 5912 5911 5911 5910 5902
5839 5840 5842 5843 5844 5844 5846 5847 5849 5851 5852 5854 5857 5860 5863 5864 5867 5868 5870 5873 5875 5877 5880 5881 5883 5886 5889 5892 5895 5900 5904 5910 5911 5912 5907 5908 5909 5908 5912 5911 5909 5909 5908 5906 5896
5831 5834 5837 5838 5839 5840 5840 5841 5842 5845 5847 5849 5852 5855 5858 5861 5863 5865 5867 5870 5872 5874 5875 5877 5881 5884 5886 5889 5893 5894 5897 5900 5907 5910 5905 5906 5906 5909 5911 5910 5907 5906 5902 5897 5893
5823 5826 5828 5831 5833 5835 5836 5837 5837 5838 5841 5843 5847 5850 5853 5856 5859 5862 5864 5866 5868 5870 5872 5874 5880 5880 5882 5885 5887 5890 5892 5896 5899 5904 5901 5900 5900 5901 5903 5904 5902 5899 5900 5895 5889
5815 5817 5820 5823 5827 5827 5830 5831 5832 5833 5834 5840 5840 5843 5846 5851 5855 5858 5860 5863 5864 5867 5869 5871 5873 5875 5878 5881 5883 5886 5890 5891 5893 5896 5898 5899 5897 5897 5898 5898 5895 5893 5897 5897 5885
5808 5809 5812 5814 5817 5819 5824 5825 5827 5829 5830 5829 5833 5838 5841 5845 5850 5852 5855 5856 5861 5863 5865 5869 5870 5871 5873 5878 5879 5882 5884 5885 5887 5888 5891 5894 5895 5896 5894 5892 5888 5884 5892 5891 5889
5801 5802 5804 5806 5809 5811 5814 5817 5821 5824 5824 5822 5827 5833 5834 5839 5843 5846 5848 5852 5855 5856 5859 5863 5865 5867 5869 5872 5874 5877 5878 5880 5882 5884 5883 5887 5890 5892 5887 5886 5878 5880 5883 5885 5884
5795 5797 5797 5798 5801 5802 5805 5809 5813 5813 5822 5820 5823 5827 5829 5832 5836 5838 5843 5845 5849 5851 5855 5858 5861 5863 5864 5866 5869 5872 5874 5876 5877 5878 5879 5883 5885 5887 5883 5876 5873 5877 5879 5878 5878
5788 5789 5791 5792 5793 5795 5798 5801 5803 5809 5814 5814 5817 5821 5823 5826 5829 5832 5833 5837 5842 5845 5850 5851 5854 5858 5858 5863 5865 5866 5869 5871 5874 5879 5882 5882 5882 5885 5876 5873 5871 5875 5875 5872 5871
5779 5780 5783 5783 5785 5788 5790 5792 5796 5801 5805 5805 5807 5813 5817 5821 5823 5825 5827 5831 5836 5840 5843 5846 5848 5853 5853 5855 5859 5860 5862 5870 5869 5871 5874 5875 5873 5871 5868 5871 5871 5868 5866 5865 5865
5768 5770 5772 5774 5775 5778 5782 5785 5787 5791 5794 5796 5798 5806 5811 5815 5817 5818 5821 5826 5830 5833 5837 5841 5843 5850 5852 5850 5852 5855 5861 5862 5863 5865 5867 5873 5867 5867 5862 5862 5863 5863 5861 5860 5859
5757 5759 5760 5763 5764 5766 5771 5775 5778 5781 5783 5786 5790 5796 5801 5805 5813 5814 5815 5820 5822 5826 5829 5834 5836 5842 5847 5843 5847 5850 5852 5855 5859 5862 5862 5865 5866 5857 5858 5856 5857 5854 5854 5854 5853
5744 5745 5747 5750 5753 5754 5758 5761 5766 5770 5772 5775 5778 5785 5790 5793 5797 5806 5809 5811 5816 5818 5821 5826 5829 5832 5837 5843 5842 5843 5847 5850 5850 5855 5856 5858 5859 5856 5852 5851 5848 5848 5844 5847 5847
5729 5731 5732 5735 5738 5741 5743 5747 5751 5756 5762 5764 5767 5773 5778 5782 5787 5791 5797 5805 5811 5810 5813 5819 5820 5824 5829 5834 5835 5835 5840 5844 5844 5847 5847 5851 5854 5855 5849 5847 5844 5843 5836 5837 5841
5715 5717 5716 5719 5722 5725 5726 5732 5736 5741 5747 5751 5754 5759 5765 5770 5776 5783 5787 5793 5801 5802 5806 5811 5812 5815 5821 5828 5832 5831 5834 5837 5839 5838 5841 5843 5846 5846 5846 5841 5839 5837 5826 5830 5834
5699 5701 5700 5703 5705 5709 5711 5716 5719 5725 5731 5735 5739 5746 5751 5757 5764 5770 5778 5785 5792 5793 5795 5800 5803 5807 5814 5820 5823 5825 5828 5830 5832 5834 5835 5839 5839 5836 5833 5834 5833 5821 5817 5825 5827
5683 5685 5686 5688 5688 5691 5694 5700 5701 5707 5712 5718 5724 5732 5735 5742 5752 5760 5766 5775 5782 5782 5785 5793 5797 5802 5805 5812 5815 5817 5821 5820 5823 5826 5828 5830 5832 5828 5827 5829 5828 5823 5818 5814 5817
5667 5668 5668 5673 5673 5675 5678 5680 5682 5686 5694 5702 5709 5716 5721 5733 5739 5747 5754 5761 5765 5767 5773 5782 5788 5791 5794 5802 5806 5808 5813 5819 5819 5821 5824 5825 5818 5818 5812 5820 5821 5823 5819 5813 5811
Wind_Speed
16 16 15 14 14 13 12 12 11 10 8 8 9 11 11 11 11 11 10 9 9 8 7 8 18 24 25 18 18 18 17 9 7 21 27 31 20 9 16 22 20 16 21 13 8
18 18 18 17 16 16 15 15 14 13 11 11 9 9 11 11 11 13 11 11 10 9 9 9 10 20 25 21 19 17 16 11 18 4 20 18 10 6 13 18 20 20 11 9 8
19 19 20 19 18 17 16 16 17 16 15 14 12 11 9 11 12 11 14 13 11 10 11 11 10 10 19 26 23 19 20 10 9 14 17 10 12 26 7 21 22 15 11 11 11
21 21 21 21 20 19 18 17 18 19 19 19 17 15 11 11 6 10 13 13 12 10 10 12 12 11 11 17 24 25 22 15 7 21 26 28 19 21 20 24 30 24 9 19 15
19 22 23 22 22 21 20 19 18 18 19 21 21 19 16 14 12 12 11 12 12 12 12 11 12 13 11 10 12 20 26 19 17 21 17 20 28 14 22 28 21 7 10 17 16
18 18 21 24 23 23 22 21 19 20 19 20 20 21 19 19 12 16 13 13 13 13 15 14 12 13 14 14 11 10 13 30 22 22 25 16 23 20 24 26 12 12 20 22 13
17 19 19 20 24 25 24 23 21 21 20 20 19 19 19 22 17 18 16 15 14 13 13 17 17 15 14 13 14 16 15 14 16 15 16 16 13 12 12 12 7 16 23 23 23
16 17 20 21 21 23 25 25 24 22 23 21 20 18 18 16 20 19 18 18 16 15 14 15 17 18 17 15 14 14 13 12 10 12 11 12 12 7 10 13 14 14 24 28 24
20 19 18 20 22 22 22 25 26 24 24 24 22 19 19 14 17 20 21 20 18 17 16 14 16 17 18 16 13 13 9 9 3 20 12 11 8 8 17 23 19 19 19 30 27
27 23 20 20 20 22 23 23 27 28 25 25 25 21 21 19 15 17 19 20 20 19 18 18 17 17 16 16 13 4 9 8 9 19 19 11 11 11 9 20 18 21 24 20 35
27 27 27 22 20 20 23 25 25 27 28 29 28 25 21 20 17 18 18 19 20 20 18 20 22 18 16 14 15 17 18 14 11 18 26 15 18 11 11 15 28 18 16 18 30
30 30 28 28 26 23 22 23 27 26 28 31 30 28 26 23 21 19 18 18 20 21 24 25 20 18 18 18 15 21 21 20 17 20 30 16 17 17 19 21 24 17 24 31 36
32 31 31 32 30 30 28 23 24 27 28 30 31 31 30 28 26 22 20 19 19 21 23 23 18 22 21 20 24 21 21 23 22 16 23 25 21 19 20 23 31 31 23 29 35
29 33 33 31 32 34 31 31 27 25 30 26 31 32 33 30 29 26 23 23 23 20 20 20 21 19 23 26 24 21 19 21 22 21 21 22 20 15 13 25 33 31 20 21 32
26 27 30 33 33 33 33 34 32 29 29 33 33 30 31 34 29 29 27 28 24 23 23 18 20 25 25 21 22 20 20 20 23 25 21 24 21 16 22 36 39 38 23 20 25
21 23 26 28 30 33 34 34 34 35 33 33 31 27 31 32 32 32 32 30 28 28 27 24 22 25 24 20 23 23 26 25 22 19 25 21 22 15 29 25 37 32 20 23 28
19 19 21 23 26 29 33 34 35 38 31 33 33 28 28 31 30 34 34 34 33 32 29 27 27 24 26 26 23 22 23 19 21 21 22 15 18 14 30 36 42 36 35 41 37
26 25 24 24 23 24 29 32 39 37 32 37 37 31 28 28 30 32 35 35 33 33 30 30 30 29 32 24 22 25 22 19 14 8 11 19 18 26 35 40 42 41 42 41 32
34 33 29 29 29 28 27 31 32 34 34 37 36 38 33 29 31 29 34 33 31 31 30 30 29 23 27 29 26 26 26 17 22 24 19 13 30 30 34 36 31 34 30 31 27
40 38 35 35 34 34 34 31 29 30 36 41 43 37 35 32 33 33 34 30 31 31 30 27 24 22 22 27 27 27 21 17 26 27 26 14 28 27 25 29 35 30 28 26 30
42 42 43 39 38 39 38 35 34 31 34 39 43 40 40 33 26 30 33 31 32 29 31 30 31 26 23 32 26 26 29 28 25 20 18 24 21 27 33 31 31 27 28 30 35
43 45 44 43 41 43 43 43 41 37 38 39 43 43 44 45 40 28 33 33 27 34 31 31 35 34 27 25 25 26 24 30 32 24 27 23 22 31 32 31 32 33 43 39 33
44 44 46 45 45 45 47 48 46 45 43 43 42 41 43 46 50 48 37 32 25 34 34 31 35 36 34 28 31 30 27 32 29 30 29 28 33 25 32 28 34 40 43 42 31
46 46 48 46 49 50 51 51 52 50 49 50 48 45 46 48 51 49 51 45 29 38 40 36 39 40 37 30 24 23 24 26 25 27 21 29 27 27 34 37 30 30 45 41 25
48 50 51 53 55 55 53 53 55 54 53 55 56 49 49 50 51 53 50 48 35 36 45 42 44 42 35 30 27 25 20 22 27 33 33 25 24 28 36 34 40 26 27 33 30
50 51 53 51 52 57 58 53 55 53 56 60 59 58 54 52 53 53 52 48 38 36 48 41 42 40 39 33 36 29 22 24 24 24 24 26 28 33 35 29 34 27 26 48 49
50 47 46 49 47 50 52 55 54 56 56 63 60 57 57 52 53 53 53 44 42 41 41 44 45 44 46 41 37 41 38 23 24 21 24 26 34 35 49 37 40 37 40 43 42
Wind_Direction
239 240 239 238 239 242 244 245 244 246 250 252 247 243 238 234 227 226 227 226 219 216 213 214 200 197 202 201 198 199 196 172 37 294 287 296 247 153 294 277 294 293 303 324 353
244 245 243 242 243 245 247 247 246 245 246 248 246 243 234 230 227 228 227 231 224 219 211 203 200 203 200 202 197 195 173 120 280 229 292 250 315 330 242 284 300 300 300 338 330
249 250 250 248 246 249 252 250 248 245 245 247 245 244 236 230 230 228 228 229 226 220 211 204 199 191 202 205 200 190 176 173 316 258 208 347 311 268 268 245 249 222 281 343 349
251 251 253 253 252 252 254 254 251 247 242 244 243 243 236 233 235 228 227 225 221 215 210 207 205 198 188 205 210 201 190 190 253 267 255 229 248 285 275 276 285 203 66 340 337
257 254 253 254 254 253 255 257 251 245 242 241 241 241 237 235 225 231 224 227 225 221 215 207 204 204 193 188 198 227 204 219 248 252 260 235 238 247 276 280 303 4 301 314 316
261 262 258 255 255 255 256 257 253 245 242 242 240 239 237 237 228 234 234 234 233 227 225 215 206 206 200 195 215 233 243 220 218 254 266 261 244 245 251 272 165 295 308 315 301
263 261 261 260 255 254 255 256 256 247 241 241 240 240 237 239 235 233 234 237 234 231 226 219 216 208 208 208 206 210 229 219 233 259 249 255 236 227 257 324 2 273 287 295 290
269 267 260 257 258 254 252 253 252 250 244 240 241 240 238 244 235 234 232 234 235 233 230 223 218 215 214 211 211 223 232 244 258 300 242 243 223 199 254 264 263 287 295 296 294
259 262 268 262 256 255 253 248 249 249 245 243 242 240 240 237 235 236 234 233 233 233 231 227 223 219 216 219 221 230 248 275 253 262 263 238 229 170 263 279 262 257 266 289 295
258 258 260 263 260 255 252 250 245 244 246 244 243 241 240 234 237 235 233 231 231 230 228 226 224 225 220 215 217 221 293 251 245 248 281 238 171 135 199 249 274 279 270 272 293
257 255 256 260 259 258 254 250 249 245 242 243 242 243 240 236 232 235 231 226 226 226 227 227 227 224 223 216 180 185 234 241 220 253 271 236 237 200 233 248 275 265 301 263 249
257 255 254 252 258 261 257 256 252 248 244 242 242 241 241 236 234 233 232 231 230 229 227 227 227 227 225 218 227 206 221 194 196 234 257 240 227 226 240 242 266 257 237 251 255
255 255 253 252 252 255 260 261 258 253 247 248 242 239 241 234 234 231 231 229 227 228 232 234 223 225 229 223 234 228 229 216 198 217 255 262 269 244 230 244 240 259 273 277 272
256 254 252 250 251 251 253 257 261 260 254 246 246 238 239 237 235 236 232 232 231 231 233 232 225 227 236 234 241 235 237 237 235 224 233 271 284 279 254 257 262 266 276 283 283
258 257 255 252 248 251 249 252 254 260 260 252 243 246 241 240 237 237 234 236 235 237 237 236 229 233 248 246 245 243 234 233 245 237 236 216 252 253 252 246 267 280 293 271 271
258 258 259 256 251 248 248 248 250 250 255 260 254 247 247 241 239 239 239 236 234 235 235 235 233 242 244 242 241 240 243 244 248 251 244 244 227 246 264 259 253 275 268 288 296
266 265 265 260 255 253 247 246 245 246 248 258 260 250 248 245 239 241 237 240 243 244 243 242 242 240 248 248 246 247 249 247 246 248 263 260 242 225 253 248 265 276 282 285 292
261 260 260 265 264 256 251 248 244 245 241 248 254 257 249 247 242 240 245 238 237 241 240 242 242 242 255 251 253 253 246 244 222 257 282 248 238 239 243 252 268 280 284 283 282
260 262 259 256 260 259 257 251 251 246 247 241 246 244 250 246 246 241 245 243 240 239 243 243 246 244 242 249 239 243 242 239 206 211 247 252 217 225 238 246 264 290 290 282 282
263 260 259 260 260 258 257 258 254 249 246 245 247 246 242 246 247 248 243 244 239 238 235 236 216 233 237 258 238 223 242 249 221 225 222 234 263 271 270 263 267 265 279 280 291
264 262 262 261 257 261 260 256 254 253 248 247 245 240 242 227 239 241 246 243 241 234 233 229 218 217 225 233 245 231 225 213 237 236 251 224 248 271 257 270 263 280 271 286 292
268 263 260 263 260 261 261 259 251 244 247 246 247 241 238 233 216 221 247 239 240 242 234 230 223 227 211 241 245 228 236 230 232 234 216 223 238 242 267 276 277 282 285 283 291
264 264 263 261 262 259 257 257 254 249 243 245 250 244 238 234 235 220 212 237 224 238 235 225 231 230 215 211 232 242 228 229 242 225 220 232 228 254 269 266 282 280 279 283 288
265 264 266 264 262 259 258 257 255 250 244 242 243 243 238 236 235 232 231 224 209 237 235 216 228 236 234 224 253 247 241 222 239 255 248 240 239 246 251 265 248 251 262 278 290
267 265 265 266 266 261 261 259 255 250 245 238 240 237 241 236 236 232 229 229 215 221 237 226 232 237 237 228 207 245 246 243 248 234 229 235 237 239 251 256 265 213 251 263 296
266 265 266 264 263 263 261 258 254 249 240 235 236 236 232 234 235 233 230 225 214 232 241 234 234 234 239 230 219 217 241 240 257 260 245 259 241 251 257 256 262 264 283 297 296
268 267 265 264 262 261 261 258 255 248 236 236 229 236 231 232 233 232 229 210 203 224 230 235 230 227 232 231 224 224 219 232 241 236 261 250 229 254 251 254 257 266 279 284 294